| time (UTC) | temp F | wind direction | speed MPH | gust MPH | rain 1hr in | rain 24hr in | rain mn in | humidity % | barometer mb |
| 20260508210506 | 51 | 279 | 9.0 | 11.0 | 0.00 | 0.00 | 0.00 | 1021.0 | |
| 20260508203506 | 52 | 267 | 7.0 | 9.0 | 0.00 | 0.00 | 0.00 | 1020.0 | |
| 20260508200506 | 52 | 267 | 7.0 | 9.0 | 0.00 | 0.00 | 0.00 | 1021.0 | |
| 20260508193506 | 52 | 245 | 5.0 | 8.0 | 0.00 | 0.00 | 0.00 | 1020.0 | |
| 20260508190506 | 52 | 245 | 5.0 | 8.0 | 0.00 | 0.00 | 0.00 | 1020.0 | |
| 20260508183506 | 52 | 189 | 4.0 | 7.0 | 0.00 | 0.00 | 0.00 | 1019.0 | |
| 20260508180506 | 52 | 176 | 4.0 | 7.0 | 0.00 | 0.00 | 0.00 | 1019.0 | |
| 20260508173505 | 53 | 208 | 3.0 | 7.0 | 0.00 | 0.00 | 0.00 | 1019.0 | |
| 20260508170506 | 53 | 208 | 3.0 | 7.0 | 0.00 | 0.00 | 0.00 | 1018.0 | |
| 20260508163505 | 53 | 221 | 4.0 | 7.0 | 0.00 | 0.00 | 0.00 | 1018.0 | |
| 20260508160505 | 53 | 221 | 4.0 | 7.0 | 0.00 | 0.00 | 0.00 | 1018.0 | |
| 20260508153505 | 53 | 221 | 4.0 | 7.0 | 0.00 | 0.00 | 0.00 | 1018.0 | |
| 20260508150505 | 53 | 235 | 6.0 | 7.0 | 0.00 | 0.00 | 0.00 | 1018.0 | |
| 20260508143505 | 53 | 230 | 8.0 | 9.0 | 0.00 | 0.00 | 0.00 | 1018.0 | |
| 20260508140505 | 53 | 230 | 8.0 | 9.0 | 0.00 | 0.00 | 0.00 | 1018.0 | |
| 20260508133506 | 52 | 247 | 9.0 | 11.0 | 0.00 | 0.00 | 0.00 | 1018.0 | |
| 20260508130505 | 52 | 247 | 9.0 | 11.0 | 0.00 | 0.00 | 0.00 | 1018.0 | |
| 20260508123506 | 52 | 247 | 9.0 | 11.0 | 0.00 | 0.00 | 0.00 | 1018.0 | |
| 20260508120506 | 52 | 264 | 10.0 | 12.0 | 0.00 | 0.00 | 0.00 | 1018.0 | |
| 20260508113506 | 51 | 264 | 10.0 | 12.0 | 0.00 | 0.00 | 0.00 | 1018.0 | |
| 20260508110506 | 51 | 264 | 10.0 | 12.0 | 0.00 | 0.00 | 0.00 | 1017.0 | |
| 20260508103506 | 51 | 264 | 10.0 | 12.0 | 0.00 | 0.00 | 0.00 | 1018.0 | |
| 20260508100506 | 51 | 257 | 9.0 | 11.0 | 0.00 | 0.00 | 0.00 | 1017.0 | |
| 20260508093505 | 51 | 258 | 9.0 | 11.0 | 0.00 | 0.00 | 0.00 | 1017.0 | |
| 20260508090505 | 51 | 258 | 9.0 | 11.0 | 0.00 | 0.00 | 0.00 | 1017.0 | |
| 20260508083505 | 51 | 258 | 9.0 | 11.0 | 0.00 | 0.00 | 0.00 | 1017.0 | |
| 20260508080505 | 50 | 241 | 12.0 | 14.0 | 0.00 | 0.00 | 0.00 | 1017.0 | |
| 20260508073505 | 49 | 231 | 12.0 | 15.0 | 0.00 | 0.00 | 0.00 | 1016.0 | |
| 20260508070505 | 49 | 231 | 12.0 | 15.0 | 0.00 | 0.00 | 0.00 | 1016.0 | |
| 20260508063505 | 49 | 228 | 12.0 | 15.0 | 0.00 | 0.00 | 0.00 | 1015.0 | |
| 20260508060505 | 49 | 228 | 12.0 | 15.0 | 0.00 | 0.00 | 0.00 | 1015.0 | |
| 20260508053506 | 49 | 230 | 13.0 | 17.0 | 0.00 | 0.00 | 0.00 | 1014.0 | |
| 20260508050506 | 49 | 230 | 13.0 | 17.0 | 0.00 | 0.00 | 0.00 | 1014.0 | |
| 20260508043506 | 49 | 220 | 13.0 | 17.0 | 0.00 | 0.00 | 0.00 | 1014.0 | |
| 20260508040506 | 49 | 220 | 13.0 | 17.0 | 0.00 | 0.00 | 0.00 | 1014.0 | |
| 20260508033506 | 49 | 220 | 13.0 | 17.0 | 0.00 | 0.00 | 0.00 | 1014.0 | |
| 20260508030506 | 49 | 207 | 14.0 | 19.0 | 0.00 | 0.00 | 0.00 | 1014.0 | |
| 20260508023506 | 49 | 207 | 15.0 | 19.0 | 0.00 | 0.00 | 0.00 | 1014.0 | |
| 20260508020506 | 49 | 207 | 15.0 | 19.0 | 0.00 | 0.00 | 0.00 | 1014.0 | |
| 20260508013505 | 49 | 203 | 14.0 | 18.0 | 0.00 | 0.00 | 0.00 | 1015.0 | |
| 20260508010505 | 49 | 203 | 14.0 | 18.0 | 0.00 | 0.00 | 0.00 | 1014.0 | |
| 20260508003505 | 50 | 200 | 13.0 | 17.0 | 0.00 | 0.00 | 0.00 | 1014.0 | |
| 20260508000505 | 49 | 201 | 13.0 | 17.0 | 0.00 | 0.00 | 0.00 | 1014.0 | |
| 20260507233505 | 50 | 196 | 13.0 | 16.0 | 0.00 | 0.00 | 0.00 | 1014.0 | |
| 20260507230505 | 50 | 196 | 13.0 | 16.0 | 0.00 | 0.00 | 0.00 | 1014.0 | |
| 20260507223506 | 50 | 198 | 12.0 | 15.0 | 0.00 | 0.00 | 0.00 | 1014.0 | |
| 20260507220506 | 50 | 198 | 12.0 | 15.0 | 0.00 | 0.00 | 0.00 | 1014.0 | |
| 20260507213506 | 51 | 199 | 12.0 | 15.0 | 0.00 | 0.00 | 0.00 | 1014.0 |